Location: Unspecified
(0.0000°N, 0.0000°E)
Time: 06:32:05
(UTC+00:00)

Explorer 11/Cluster Stage 4 - Pass Details

Date: 27 November 2019
Orbit: 467 x 1259 km, 28.8° (Epoch: 11 December)

Event Time Altitude Azimuth Distance (km) Brightness Sun altitude
Rises 00:01:40 0° 302° (WNW) 3,640 - -68.7°
Reaches altitude 10° 00:04:08 10° 303° (WNW) 2,800 - -68.6°
Maximum altitude 00:11:13 84° 30° (NNE) 1,162 - -68.2°
Drops below altitude 10° 00:19:24 10° 119° (ESE) 3,212 - -67.6°
Sets 00:22:25 0° 119° (ESE) 4,200 - -67.3°
